Westminster, MD

1:30 AM EST on November 12, 2019 (GMT -0500)
Carroll County Regional-Poage

Weather History for KDMW - September, 2019

Change the Weather History Date:

Monday, September 2, 2019

  Actual Average (WUND) Record (WUND)
Temperature  
Mean Temperature 79 °F -  
Max Temperature 87 °F - - (-1)
Min Temperature 71 °F - - (-1)
Cooling Degree Days 14    
Growing Degree Days 29 (Base 50)    
Moisture  
Dew Point 69 °F    
Average Humidity 83    
Maximum Humidity 100    
Minimum Humidity 21    
Precipitation  
Precipitation 0.09 in - - ()
Sea Level Pressure  
Sea Level Pressure 30.06 in    
Wind  
Wind Speed 7 mph (SSW)    
Max Wind Speed 13 mph    
Max Gust Speed 18 mph    
Visibility 9 miles    
Events Fog , Rain , Thunderstorm    
Averages and records for this station are not official NWS values.
T = Trace of Precipitation, MM = Missing Value Source: NWS Daily Summary

Daily Weather History Graph

Daily Weather History Graph

Search for Another Location

Airport or City:

Astronomy

Sep. 02, 2019 Rise Set
Actual Time 6:36 AM EDT 7:37 PM EDT
Civil Twilight 6:09 AM EDT 8:05 PM EDT
Nautical Twilight 5:36 AM EDT 8:38 PM EDT
Astronomical Twilight 5:02 AM EDT 9:12 PM EDT
Moon 10:16 AM EDT (9/2) 9:59 PM EDT (9/2)
Length of Visible Light 13h 56m
Length of Day
13h 00m
Waxing Crescent, 15% of the Moon is Illuminated
Sep 2
Waxing Crescent
Sep 5
First Quarter
Sep 14
Full
Sep 21
Last Quarter
Sep 28
New

Hourly Weather History & Observations

Time (EDT) Temp. Heat Index Dew Point Humidity Pressure Visibility Wind Dir Wind Speed Gust Speed Precip Events Conditions
12:00 AM 71.6 °F - 66.2 °F 83% 30.19 in 10.0 mi SSE 5.8 mph - N/A   Overcast
1:00 AM 71.6 °F - 68.0 °F 88% 30.17 in 10.0 mi SSE 10.4 mph 18.4 mph N/A   Mostly Cloudy
1:20 AM 71.6 °F - 68.0 °F 88% 30.17 in 10.0 mi SSE 10.4 mph - N/A   Overcast
1:40 AM 71.6 °F - 68.0 °F 88% 30.16 in 10.0 mi SSE 9.2 mph - N/A   Mostly Cloudy
2:00 AM 71.6 °F - 68.0 °F 88% 30.16 in 10.0 mi SSE 9.2 mph - N/A   Overcast
2:20 AM 71.6 °F - 68.0 °F 88% 30.16 in 10.0 mi SSE 8.1 mph - N/A   Overcast
2:40 AM 71.6 °F - 69.8 °F 94% 30.15 in 10.0 mi SSE 9.2 mph - N/A   Overcast
3:00 AM 71.6 °F - 68.0 °F 88% 30.12 in 10.0 mi SSE 10.4 mph 17.3 mph N/A   Mostly Cloudy
3:20 AM 71.6 °F - 69.8 °F 94% 30.12 in 10.0 mi SSE 9.2 mph 17.3 mph N/A   Overcast
4:00 AM 71.6 °F - 69.8 °F 94% 30.11 in 10.0 mi South 9.2 mph - N/A   Overcast
4:20 AM 71.6 °F - 69.8 °F 94% 30.11 in 10.0 mi South 8.1 mph - N/A   Overcast
4:40 AM 71.6 °F - 69.8 °F 94% 30.11 in 10.0 mi South 5.8 mph - N/A   Overcast
5:00 AM 71.6 °F - 69.8 °F 94% 30.11 in 10.0 mi South 8.1 mph - N/A   Overcast
5:20 AM 71.6 °F - 69.8 °F 94% 30.11 in 10.0 mi South 6.9 mph - N/A Rain Light Rain
5:40 AM 71.6 °F - 69.8 °F 94% 30.10 in 10.0 mi South 8.1 mph - N/A   Overcast
6:00 AM 71.6 °F - 69.8 °F 94% 30.10 in 10.0 mi South 8.1 mph - N/A   Mostly Cloudy
6:20 AM 71.6 °F - 69.8 °F 94% 30.10 in 10.0 mi South 8.1 mph - N/A   Mostly Cloudy
6:40 AM 71.6 °F - 69.8 °F 94% 30.12 in 10.0 mi SSW 6.9 mph - N/A   Overcast
7:00 AM 71.6 °F - 69.8 °F 94% 30.11 in 10.0 mi SSW 6.9 mph - N/A   Overcast
7:40 AM 71.6 °F - 69.8 °F 94% 30.11 in 10.0 mi South 5.8 mph - N/A   Overcast
8:00 AM 73.4 °F - 69.8 °F 88% 30.11 in 10.0 mi South 6.9 mph - N/A   Overcast
8:20 AM 73.4 °F - 69.8 °F 88% 30.10 in 10.0 mi South 6.9 mph - N/A   Overcast
8:40 AM 73.4 °F - 69.8 °F 88% 30.10 in 10.0 mi South 9.2 mph - N/A   Scattered Clouds
9:00 AM 73.4 °F - 69.8 °F 88% 30.09 in 10.0 mi South 8.1 mph - N/A   Scattered Clouds
9:20 AM 75.2 °F - 69.8 °F 83% 30.09 in 10.0 mi SSW 10.4 mph - N/A   Scattered Clouds
9:40 AM 75.2 °F - 69.8 °F 83% 30.09 in 10.0 mi SSW 10.4 mph - N/A   Scattered Clouds
10:00 AM 75.2 °F - 69.8 °F 83% 30.08 in 10.0 mi SSW 12.7 mph 18.4 mph N/A   Mostly Cloudy
10:20 AM 77.0 °F - 69.8 °F 78% 30.08 in 10.0 mi SSW 11.5 mph 17.3 mph N/A   Scattered Clouds
10:40 AM 77.0 °F - 69.8 °F 78% 30.07 in 10.0 mi SSW 12.7 mph - N/A   Scattered Clouds
11:00 AM 78.8 °F - 69.8 °F 74% 30.07 in 10.0 mi SSW 9.2 mph - N/A   Scattered Clouds
11:20 AM 77.0 °F - 69.8 °F 78% 30.08 in 10.0 mi WSW 8.1 mph - N/A   Mostly Cloudy
11:40 AM 78.8 °F - 69.8 °F 74% 30.08 in 10.0 mi SW 8.1 mph - N/A   Overcast
12:00 PM 78.8 °F - 35.6 °F 21% 30.07 in 10.0 mi SW 6.9 mph - N/A   Overcast
12:20 PM 82.4 °F 86.3 °F 69.8 °F 66% 30.06 in 10.0 mi WSW 10.4 mph - N/A   Mostly Cloudy
12:40 PM 78.8 °F - 69.8 °F 74% 30.05 in 10.0 mi WSW 8.1 mph - N/A   Scattered Clouds
1:00 PM 82.4 °F 86.3 °F 69.8 °F 66% 30.04 in 10.0 mi SSW 8.1 mph - N/A   Scattered Clouds
1:20 PM 82.4 °F 86.3 °F 69.8 °F 66% 30.04 in 10.0 mi SSW 9.2 mph - N/A   Scattered Clouds
1:40 PM 82.4 °F 86.3 °F 69.8 °F 66% 30.03 in 10.0 mi SW 5.8 mph 9.2 mph N/A   Scattered Clouds
2:00 PM 84.2 °F 88.4 °F 69.8 °F 62% 30.03 in 10.0 mi WSW 8.1 mph - N/A   Scattered Clouds
2:20 PM 84.2 °F 88.4 °F 69.8 °F 62% 30.02 in 10.0 mi SW 8.1 mph - N/A   Scattered Clouds
2:40 PM 84.2 °F 88.4 °F 69.8 °F 62% 30.01 in 10.0 mi WSW 9.2 mph - N/A   Clear
3:00 PM 87.8 °F 92.6 °F 69.8 °F 55% 29.99 in 10.0 mi SW 4.6 mph - N/A   Clear
3:20 PM 87.8 °F 92.6 °F 69.8 °F 55% 29.98 in 10.0 mi South 6.9 mph - N/A   Scattered Clouds
3:40 PM 86.0 °F 90.4 °F 69.8 °F 58% 29.99 in 10.0 mi WSW 6.9 mph - N/A   Scattered Clouds
4:00 PM 84.2 °F 88.4 °F 69.8 °F 62% 29.98 in 10.0 mi SSW 6.9 mph - N/A   Clear
4:20 PM 86.0 °F 90.4 °F 69.8 °F 58% 29.98 in 10.0 mi SW 9.2 mph - N/A   Clear
4:40 PM 86.0 °F 90.4 °F 69.8 °F 58% 29.96 in 10.0 mi SW 5.8 mph 16.1 mph N/A Thunderstorm Clear
5:00 PM 80.6 °F 84.6 °F 71.6 °F 74% 29.96 in 5.0 mi SW 5.8 mph - 0.02 in Rain , Thunderstorm Rain
5:20 PM 78.8 °F - 69.8 °F 74% 30.01 in 10.0 mi NNW 10.4 mph - 0.02 in Rain , Thunderstorm Light Thunderstorms and Rain
5:40 PM 71.6 °F - 69.8 °F 94% 30.01 in 7.0 mi NE 6.9 mph - 0.07 in Rain , Thunderstorm Thunderstorms and Rain
6:00 PM 73.4 °F - 69.8 °F 88% 30.00 in 10.0 mi Calm Calm - N/A Thunderstorm Scattered Clouds
6:40 PM 73.4 °F - 71.6 °F 94% 30.00 in 10.0 mi Calm Calm - N/A   Scattered Clouds
7:00 PM 75.2 °F - 71.6 °F 89% 29.99 in 10.0 mi ENE 3.5 mph - 0.01 in   Scattered Clouds
7:20 PM 73.4 °F - 71.6 °F 94% 29.99 in 10.0 mi Calm Calm - 0.01 in   Scattered Clouds
7:40 PM 73.4 °F - 71.6 °F 94% 30.00 in 10.0 mi Calm Calm - 0.01 in Thunderstorm Mostly Cloudy
8:00 PM 73.4 °F - 71.6 °F 94% 30.00 in 10.0 mi Calm Calm - N/A   Mostly Cloudy
8:20 PM 73.4 °F - 71.6 °F 94% 30.01 in 10.0 mi Calm Calm - N/A Thunderstorm Mostly Cloudy
8:40 PM 73.4 °F - 71.6 °F 94% 30.01 in 10.0 mi Calm Calm - N/A   Mostly Cloudy
9:00 PM 73.4 °F - 71.6 °F 94% 30.03 in 7.0 mi WNW 3.5 mph - N/A Rain Rain
9:20 PM 73.4 °F - 71.6 °F 94% 30.03 in 10.0 mi NW 4.6 mph - 0.01 in Rain Light Rain
9:40 PM 73.4 °F - 71.6 °F 94% 30.04 in 10.0 mi Calm Calm - 0.01 in   Light Drizzle
10:00 PM 73.4 °F - 71.6 °F 94% 30.04 in 7.0 mi ENE 3.5 mph - N/A   Overcast
10:20 PM 73.4 °F - 71.6 °F 94% 30.04 in 7.0 mi Calm Calm - N/A   Overcast
10:40 PM 73.4 °F - 71.6 °F 94% 30.04 in 7.0 mi Calm Calm - N/A   Mostly Cloudy
11:00 PM 71.6 °F - 71.6 °F 100% 30.04 in 7.0 mi Calm Calm - N/A   Scattered Clouds
11:20 PM 71.6 °F - 69.8 °F 94% 30.04 in 1.8 mi Calm Calm - N/A   Mostly Cloudy
11:40 PM 71.6 °F - 69.8 °F 94% 30.04 in 0.2 mi Calm Calm - N/A Fog Fog